This is the latest recevied weather packets stored in our database for station/object KD2PO-13. If no packets are shown the sender has not sent any weather packets the latest 10 day(s).
| Time | Temp. | Humidity | Pressure | Rain* | Wind** | Luminosity | Snow |
|---|---|---|---|---|---|---|---|
| 1777734142 | 6.11° C | 60% | 0 hPa | 0 mm | - | - | - |
| 1777733842 | 6.11° C | 62% | 0 hPa | 0 mm | - | - | - |
| 1777733543 | 6.11° C | 64% | 0 hPa | 0 mm | - | - | - |
| 1777733243 | 5.56° C | 63% | 0 hPa | 0 mm | - | - | - |
| 1777732943 | 6.11° C | 63% | 0 hPa | 0 mm | - | - | - |
| 1777732343 | 5.56° C | 58% | 0 hPa | 0 mm | - | - | - |
| 1777732042 | 5.56° C | 64% | 0 hPa | 0 mm | - | - | - |
| 1777731742 | 5.56° C | 64% | 0 hPa | 0 mm | - | - | - |
| 1777731143 | 5.56° C | 64% | 0 hPa | 0 mm | - | - | - |
| 1777730843 | 5.56° C | 69% | 0 hPa | 0 mm | - | - | - |
| 1777730543 | 5.56° C | 69% | 0 hPa | 0 mm | - | - | - |
| 1777730243 | 5.56° C | 68% | 0 hPa | 0 mm | - | - | - |
| 1777729942 | 5° C | 71% | 0 hPa | 0 mm | - | - | - |
| 1777729342 | 5° C | 70% | 0 hPa | 0 mm | - | - | - |
| 1777729043 | 4.44° C | 70% | 0 hPa | 0 mm | - | - | - |
| 1777728443 | 4.44° C | 70% | 0 hPa | 0 mm | - | - | - |
| 1777728143 | 4.44° C | 69% | 0 hPa | 0 mm | - | - | - |
| 1777727843 | 4.44° C | 74% | 0 hPa | 0 mm | - | - | - |
| 1777727543 | 4.44° C | 74% | 0 hPa | 0 mm | - | - | - |
| 1777727244 | 4.44° C | 75% | 0 hPa | 0 mm | - | - | - |
| 1777726342 | 3.89° C | 80% | 0 hPa | 0 mm | - | - | - |
| 1777726043 | 3.89° C | 81% | 0 hPa | 0 mm | - | - | - |
| 1777725742 | 3.33° C | 80% | 0 hPa | 0 mm | - | - | - |
| 1777725443 | 3.33° C | 81% | 0 hPa | 0 mm | - | - | - |
| 1777725443 | 3.33° C | 81% | 0 hPa | 0 mm | - | - | - |
* Rain latest hour (hover to see other rain measurements)
** Current wind speed in m/s (hover to see current wind gust speed)